Time,TemperatureF,DewpointF,PressureIn,WindDirection,WindDirectionDegrees,WindSpeedMPH,WindSpeedGustMPH,Humidity,HourlyPrecipIn,Conditions,Clouds,dailyrainin,SoftwareType,DateUTC
2013-01-01 00:00:00,55.6,53.3,30.22,WNW,289,0.0,0.0,92,0.00,,,0.00,Wunderground v.1.13,2013-01-01 05:00:00,
2013-01-01 00:10:00,55.6,53.3,30.22,WNW,291,0.0,0.0,92,0.00,,,0.00,Wunderground v.1.13,2013-01-01 05:10:00,
2013-01-01 00:19:00,55.6,53.3,30.21,WNW,289,0.0,0.0,92,0.00,,,0.00,Wunderground v.1.13,2013-01-01 05:19:00,
2013-01-01 00:30:00,55.7,53.4,30.21,WNW,291,0.0,0.0,92,0.00,,,0.00,Wunderground v.1.13,2013-01-01 05:30:00,
2013-01-01 00:40:00,55.6,53.3,30.21,WNW,291,0.0,0.0,92,0.00,,,0.00,Wunderground v.1.13,2013-01-01 05:40:00,
2013-01-01 00:50:00,55.4,53.1,30.21,WNW,291,0.0,0.0,92,0.00,,,0.00,Wunderground v.1.13,2013-01-01 05:50:00,
2013-01-01 01:00:00,55.5,53.2,30.21,N/A,-737280,0.0,0.0,92,0.00,,,0.00,Wunderground v.1.13,2013-01-01 06:00:00,
2013-01-01 01:10:00,55.6,53.3,30.21,WNW,291,0.0,0.0,92,0.00,,,0.00,Wunderground v.1.13,2013-01-01 06:10:00,
2013-01-01 01:20:00,55.6,53.3,30.20,WNW,291,0.0,0.0,92,0.00,,,0.00,Wunderground v.1.13,2013-01-01 06:20:00,
2013-01-01 01:30:00,55.6,53.3,30.19,WNW,291,0.0,0.0,92,0.00,,,0.00,Wunderground v.1.13,2013-01-01 06:30:00,
2013-01-01 01:40:00,55.6,53.3,30.19,WNW,289,0.0,0.0,92,0.00,,,0.00,Wunderground v.1.13,2013-01-01 06:40:00,
2013-01-01 01:50:00,55.4,53.1,30.19,WNW,291,0.0,0.0,92,0.00,,,0.00,Wunderground v.1.13,2013-01-01 06:50:00,
2013-01-01 02:00:00,55.3,53.0,30.18,WNW,289,0.0,0.0,92,0.00,,,0.00,Wunderground v.1.13,2013-01-01 07:00:00,
2013-01-01 02:10:00,55.1,52.8,30.18,WNW,289,0.0,0.0,92,0.00,,,0.00,Wunderground v.1.13,2013-01-01 07:10:00,
2013-01-01 02:20:00,55.0,53.0,30.18,WNW,291,0.0,0.0,93,0.00,,,0.00,Wunderground v.1.13,2013-01-01 07:20:00,
2013-01-01 02:30:00,55.1,53.1,30.17,WNW,291,0.0,0.0,93,0.00,,,0.00,Wunderground v.1.13,2013-01-01 07:30:00,
2013-01-01 02:40:00,55.3,53.3,30.17,WNW,289,0.0,0.0,93,0.00,,,0.00,Wunderground v.1.13,2013-01-01 07:40:00,
2013-01-01 02:49:00,55.3,53.6,30.16,WNW,289,0.0,0.0,94,0.00,,,0.00,Wunderground v.1.13,2013-01-01 07:49:00,
2013-01-01 03:00:00,55.4,53.7,30.16,WNW,291,0.0,0.0,94,0.00,,,0.00,Wunderground v.1.13,2013-01-01 08:00:00,
2013-01-01 03:10:00,55.7,54.0,30.16,WNW,291,0.0,0.0,94,0.00,,,0.00,Wunderground v.1.13,2013-01-01 08:10:00,
2013-01-01 03:20:00,56.2,54.5,30.16,WNW,289,0.0,0.0,94,0.00,,,0.00,Wunderground v.1.13,2013-01-01 08:20:00,
2013-01-01 03:29:00,56.7,54.7,30.16,WNW,288,0.0,0.0,93,0.00,,,0.00,Wunderground v.1.13,2013-01-01 08:29:00,
2013-01-01 03:40:00,57.0,55.0,30.16,SSE,157,0.0,0.0,93,0.00,,,0.00,Wunderground v.1.13,2013-01-01 08:40:00,
2013-01-01 03:50:00,57.0,54.7,30.16,SSE,157,0.0,0.0,92,0.00,,,0.00,Wunderground v.1.13,2013-01-01 08:50:00,
2013-01-01 03:59:00,57.2,55.2,30.15,SSE,157,0.0,0.0,93,0.00,,,0.00,Wunderground v.1.13,2013-01-01 08:59:00,
2013-01-01 04:10:00,57.2,55.2,30.15,SSE,148,0.0,0.0,93,0.00,,,0.00,Wunderground v.1.13,2013-01-01 09:10:00,
2013-01-01 04:20:00,57.5,55.5,30.14,SSE,148,0.0,0.0,93,0.00,,,0.00,Wunderground v.1.13,2013-01-01 09:20:00,
2013-01-01 04:30:00,57.5,55.8,30.14,SSE,148,0.0,0.0,94,0.00,,,0.00,Wunderground v.1.13,2013-01-01 09:30:00,
2013-01-01 04:40:00,57.5,55.8,30.14,SSE,148,0.0,0.0,94,0.00,,,0.00,Wunderground v.1.13,2013-01-01 09:40:00,
2013-01-01 04:49:00,57.0,55.6,30.14,SSE,148,0.0,0.0,95,0.00,,,0.00,Wunderground v.1.13,2013-01-01 09:49:00,
2013-01-01 05:00:00,56.6,55.5,30.14,SSE,148,0.0,0.0,96,0.00,,,0.00,Wunderground v.1.13,2013-01-01 10:00:00,
2013-01-01 05:10:00,56.2,55.1,30.14,SSE,148,0.0,0.0,96,0.00,,,0.00,Wunderground v.1.13,2013-01-01 10:10:00,
2013-01-01 05:20:00,55.7,54.6,30.14,SSE,148,0.0,0.0,96,0.00,,,0.00,Wunderground v.1.13,2013-01-01 10:20:00,
2013-01-01 05:30:00,55.6,54.8,30.13,SSE,148,0.0,0.0,97,0.00,,,0.00,Wunderground v.1.13,2013-01-01 10:30:00,
2013-01-01 05:40:00,55.4,54.6,30.13,SSE,148,0.0,0.0,97,0.00,,,0.00,Wunderground v.1.13,2013-01-01 10:40:00,
2013-01-01 05:50:00,55.3,54.5,30.13,SSE,148,0.0,0.0,97,0.00,,,0.00,Wunderground v.1.13,2013-01-01 10:50:00,
2013-01-01 06:00:00,55.9,55.3,30.12,SSE,148,0.0,0.0,98,0.00,,,0.00,Wunderground v.1.13,2013-01-01 11:00:00,
2013-01-01 06:10:00,56.3,55.7,30.12,SSE,148,0.0,0.0,98,0.00,,,0.00,Wunderground v.1.13,2013-01-01 11:10:00,
2013-01-01 06:20:00,56.3,55.7,30.12,SSE,148,0.0,0.0,98,0.00,,,0.00,Wunderground v.1.13,2013-01-01 11:20:00,
2013-01-01 06:30:00,56.3,55.7,30.13,SSE,148,0.0,0.0,98,0.00,,,0.00,Wunderground v.1.13,2013-01-01 11:30:00,
2013-01-01 06:40:00,56.0,55.7,30.13,SSE,148,0.0,0.0,99,0.00,,,0.00,Wunderground v.1.13,2013-01-01 11:40:00,
2013-01-01 06:50:00,55.9,55.3,30.14,SSE,148,0.0,0.0,98,0.00,,,0.00,Wunderground v.1.13,2013-01-01 11:50:00,
2013-01-01 07:00:00,55.6,55.3,30.14,SSE,148,0.0,0.0,99,0.00,,,0.00,Wunderground v.1.13,2013-01-01 12:00:00,
2013-01-01 07:10:00,55.4,55.1,30.14,SSE,148,0.0,0.0,99,0.00,,,0.00,Wunderground v.1.13,2013-01-01 12:10:00,
2013-01-01 07:19:00,55.1,54.8,30.15,SSE,148,0.0,0.0,99,0.00,,,0.00,Wunderground v.1.13,2013-01-01 12:19:00,
2013-01-01 07:30:00,55.3,55.0,30.15,SSE,148,0.0,0.0,99,0.00,,,0.00,Wunderground v.1.13,2013-01-01 12:30:00,
2013-01-01 07:40:00,55.1,54.8,30.15,SSE,148,0.0,0.0,99,0.00,,,0.00,Wunderground v.1.13,2013-01-01 12:40:00,
2013-01-01 07:50:00,55.0,55.0,30.15,SSE,148,0.0,0.0,100,0.00,,,0.00,Wunderground v.1.13,2013-01-01 12:50:00,
2013-01-01 07:59:00,55.4,55.4,30.15,SSE,148,0.0,0.0,100,0.00,,,0.00,Wunderground v.1.13,2013-01-01 12:59:00,
2013-01-01 08:10:00,56.9,56.9,30.15,SSE,148,0.0,0.0,100,0.00,,,0.00,Wunderground v.1.13,2013-01-01 13:10:00,
2013-01-01 08:20:00,57.8,57.8,30.14,SSE,148,0.0,0.0,100,0.00,,,0.00,Wunderground v.1.13,2013-01-01 13:20:00,
2013-01-01 08:30:00,58.6,58.6,30.14,SSE,148,0.0,0.0,100,0.00,,,0.00,Wunderground v.1.13,2013-01-01 13:30:00,
2013-01-01 08:40:00,59.5,59.2,30.14,East,83,0.0,0.0,99,0.00,,,0.00,Wunderground v.1.13,2013-01-01 13:40:00,
2013-01-01 08:50:00,60.4,59.8,30.15,East,90,0.0,0.0,98,0.00,,,0.00,Wunderground v.1.13,2013-01-01 13:50:00,
2013-01-01 09:00:00,61.6,60.4,30.15,ESE,103,0.0,0.0,96,0.00,,,0.00,Wunderground v.1.13,2013-01-01 14:00:00,
2013-01-01 09:10:00,62.0,60.6,30.15,ENE,68,0.0,0.0,95,0.00,,,0.00,Wunderground v.1.13,2013-01-01 14:10:00,
2013-01-01 09:20:00,62.0,60.6,30.15,ENE,73,0.0,0.0,95,0.00,,,0.00,Wunderground v.1.13,2013-01-01 14:20:00,
2013-01-01 09:30:00,65.5,59.9,30.16,SE,126,0.0,0.0,82,0.00,,,0.00,Wunderground v.1.13,2013-01-01 14:30:00,
2013-01-01 09:40:00,66.6,59.9,30.16,ESE,104,0.0,0.0,79,0.00,,,0.00,Wunderground v.1.13,2013-01-01 14:40:00,
2013-01-01 09:50:00,67.3,60.2,30.16,SE,136,1.0,1.0,78,0.00,,,0.00,Wunderground v.1.13,2013-01-01 14:50:00,
2013-01-01 09:59:00,67.8,60.3,30.15,ESE,110,2.0,2.0,77,0.00,,,0.00,Wunderground v.1.13,2013-01-01 14:59:00,
2013-01-01 10:10:00,68.4,60.2,30.15,ESE,120,0.0,0.0,75,0.00,,,0.00,Wunderground v.1.13,2013-01-01 15:10:00,
2013-01-01 10:20:00,69.1,60.5,30.15,ESE,117,1.0,1.0,74,0.00,,,0.00,Wunderground v.1.13,2013-01-01 15:20:00,
2013-01-01 10:29:00,70.4,60.5,30.15,SSE,155,0.0,0.0,71,0.00,,,0.00,Wunderground v.1.13,2013-01-01 15:29:00,
2013-01-01 10:40:00,70.9,60.2,30.15,SE,144,3.0,6.0,69,0.00,,,0.00,Wunderground v.1.13,2013-01-01 15:40:00,
2013-01-01 10:50:00,71.5,60.4,30.15,ESE,117,3.0,3.0,68,0.00,,,0.00,Wunderground v.1.13,2013-01-01 15:50:00,
2013-01-01 11:00:00,71.6,60.5,30.14,ESE,114,3.0,4.0,68,0.00,,,0.00,Wunderground v.1.13,2013-01-01 16:00:00,
2013-01-01 11:10:00,71.6,60.1,30.14,SE,128,1.0,1.0,67,0.00,,,0.00,Wunderground v.1.13,2013-01-01 16:10:00,
2013-01-01 11:19:00,73.5,60.6,30.14,SE,124,1.0,1.0,64,0.00,,,0.00,Wunderground v.1.13,2013-01-01 16:19:00,
2013-01-01 11:30:00,74.6,61.6,30.13,SW,215,1.0,1.0,64,0.00,,,0.00,Wunderground v.1.13,2013-01-01 16:30:00,
2013-01-01 11:40:00,74.7,59.9,30.13,SSW,212,2.0,2.0,60,0.00,,,0.00,Wunderground v.1.13,2013-01-01 16:40:00,
2013-01-01 11:50:00,75.1,59.8,30.13,South,169,1.0,1.0,59,0.00,,,0.00,Wunderground v.1.13,2013-01-01 16:50:00,
2013-01-01 12:00:00,75.3,60.0,30.12,SE,130,2.0,2.0,59,0.00,,,0.00,Wunderground v.1.13,2013-01-01 17:00:00,
2013-01-01 12:10:00,75.6,59.8,30.12,ESE,114,3.0,8.0,58,0.00,,,0.00,Wunderground v.1.13,2013-01-01 17:10:00,
2013-01-01 12:20:00,75.6,59.8,30.11,SSE,160,4.0,4.0,58,0.00,,,0.00,Wunderground v.1.13,2013-01-01 17:20:00,
2013-01-01 12:30:00,76.0,59.7,30.10,SSW,198,3.0,3.0,57,0.00,,,0.00,Wunderground v.1.13,2013-01-01 17:30:00,
2013-01-01 12:40:00,76.3,59.9,30.10,East,96,3.0,14.0,57,0.00,,,0.00,Wunderground v.1.13,2013-01-01 17:40:00,
2013-01-01 12:50:00,76.3,59.9,30.09,ESE,106,3.0,7.0,57,0.00,,,0.00,Wunderground v.1.13,2013-01-01 17:50:00,
2013-01-01 13:00:00,75.8,60.0,30.08,SSW,206,3.0,3.0,58,0.00,,,0.00,Wunderground v.1.13,2013-01-01 18:00:00,
2013-01-01 13:10:00,76.0,60.2,30.08,SSE,158,2.0,2.0,58,0.00,,,0.00,Wunderground v.1.13,2013-01-01 18:10:00,
2013-01-01 13:19:00,76.3,60.4,30.07,South,176,0.0,0.0,58,0.00,,,0.00,Wunderground v.1.13,2013-01-01 18:19:00,
2013-01-01 13:30:00,76.5,60.1,30.07,SE,133,2.0,2.0,57,0.00,,,0.00,Wunderground v.1.13,2013-01-01 18:30:00,
2013-01-01 13:40:00,76.8,59.9,30.07,SE,138,1.0,10.0,56,0.00,,,0.00,Wunderground v.1.13,2013-01-01 18:40:00,
2013-01-01 13:50:00,76.5,60.1,30.06,South,175,3.0,6.0,57,0.00,,,0.00,Wunderground v.1.13,2013-01-01 18:50:00,
2013-01-01 14:00:00,76.7,60.3,30.05,SE,144,3.0,3.0,57,0.00,,,0.00,Wunderground v.1.13,2013-01-01 19:00:00,
2013-01-01 14:10:00,76.5,60.1,30.05,SSE,155,4.0,4.0,57,0.00,,,0.00,Wunderground v.1.13,2013-01-01 19:10:00,
2013-01-01 14:20:00,76.7,59.8,30.04,SSW,212,2.0,2.0,56,0.00,,,0.00,Wunderground v.1.13,2013-01-01 19:20:00,
2013-01-01 14:30:00,76.1,60.2,30.04,SE,141,4.0,8.0,58,0.00,,,0.00,Wunderground v.1.13,2013-01-01 19:30:00,
2013-01-01 14:40:00,76.3,59.9,30.04,SW,223,3.0,3.0,57,0.00,,,0.00,Wunderground v.1.13,2013-01-01 19:40:00,
2013-01-01 14:50:00,76.3,59.9,30.04,SSW,193,2.0,2.0,57,0.00,,,0.00,Wunderground v.1.13,2013-01-01 19:50:00,
2013-01-01 15:00:00,76.3,59.9,30.05,SSW,210,2.0,4.0,57,0.00,,,0.00,Wunderground v.1.13,2013-01-01 20:00:00,
2013-01-01 15:10:00,76.5,60.1,30.05,South,191,1.0,9.0,57,0.00,,,0.00,Wunderground v.1.13,2013-01-01 20:10:00,
2013-01-01 15:19:00,76.5,60.1,30.04,West,268,3.0,9.0,57,0.00,,,0.00,Wunderground v.1.13,2013-01-01 20:19:00,
2013-01-01 15:30:00,76.1,60.2,30.05,SSW,200,1.0,1.0,58,0.00,,,0.00,Wunderground v.1.13,2013-01-01 20:30:00,
2013-01-01 15:40:00,76.3,59.9,30.05,South,181,0.0,0.0,57,0.00,,,0.00,Wunderground v.1.13,2013-01-01 20:40:00,
2013-01-01 15:50:00,76.5,60.6,30.05,South,186,0.0,0.0,58,0.00,,,0.00,Wunderground v.1.13,2013-01-01 20:50:00,
2013-01-01 16:00:00,76.3,60.4,30.05,South,189,0.0,0.0,58,0.00,,,0.00,Wunderground v.1.13,2013-01-01 21:00:00,
2013-01-01 16:10:00,76.5,60.6,30.05,SE,136,0.0,0.0,58,0.00,,,0.00,Wunderground v.1.13,2013-01-01 21:10:00,
2013-01-01 16:20:00,76.5,60.1,30.05,South,184,1.0,6.0,57,0.00,,,0.00,Wunderground v.1.13,2013-01-01 21:20:00,
2013-01-01 16:30:00,75.8,60.0,30.05,SE,138,1.0,1.0,58,0.00,,,0.00,Wunderground v.1.13,2013-01-01 21:30:00,
2013-01-01 16:40:00,75.4,60.5,30.05,South,169,1.0,1.0,60,0.00,,,0.00,Wunderground v.1.13,2013-01-01 21:40:00,
2013-01-01 16:50:00,74.7,59.9,30.05,South,189,1.0,1.0,60,0.00,,,0.00,Wunderground v.1.13,2013-01-01 21:50:00,
2013-01-01 17:00:00,74.2,60.3,30.05,SSE,165,0.0,0.0,62,0.00,,,0.00,Wunderground v.1.13,2013-01-01 22:00:00,
2013-01-01 17:10:00,73.7,60.3,30.05,South,169,0.0,0.0,63,0.00,,,0.00,Wunderground v.1.13,2013-01-01 22:10:00,
2013-01-01 17:20:00,73.3,60.4,30.05,South,169,0.0,0.0,64,0.00,,,0.00,Wunderground v.1.13,2013-01-01 22:20:00,
2013-01-01 17:30:00,73.0,60.1,30.05,South,174,0.0,0.0,64,0.00,,,0.00,Wunderground v.1.13,2013-01-01 22:30:00,
2013-01-01 17:40:00,72.7,59.8,30.05,South,176,0.0,0.0,64,0.00,,,0.00,Wunderground v.1.13,2013-01-01 22:40:00,
2013-01-01 17:50:00,72.5,59.6,30.05,South,185,0.0,0.0,64,0.00,,,0.00,Wunderground v.1.13,2013-01-01 22:50:00,
2013-01-01 18:00:00,72.1,59.7,30.05,South,172,0.0,0.0,65,0.00,,,0.00,Wunderground v.1.13,2013-01-01 23:00:00,
2013-01-01 18:10:00,71.8,59.8,30.05,South,179,0.0,0.0,66,0.00,,,0.00,Wunderground v.1.13,2013-01-01 23:10:00,
2013-01-01 18:20:00,71.6,60.1,30.05,South,179,0.0,0.0,67,0.00,,,0.00,Wunderground v.1.13,2013-01-01 23:20:00,
2013-01-01 18:30:00,71.3,60.2,30.05,South,179,0.0,0.0,68,0.00,,,0.00,Wunderground v.1.13,2013-01-01 23:30:00,
2013-01-01 18:40:00,70.9,59.8,30.05,South,179,0.0,0.0,68,0.00,,,0.00,Wunderground v.1.13,2013-01-01 23:40:00,
2013-01-01 18:50:00,70.4,59.7,30.05,South,179,0.0,0.0,69,0.00,,,0.00,Wunderground v.1.13,2013-01-01 23:50:00,
2013-01-01 19:00:00,69.9,59.7,30.05,South,179,0.0,0.0,70,0.00,,,0.00,Wunderground v.1.13,2013-01-02 00:00:00,
2013-01-01 19:10:00,69.8,60.0,30.05,South,179,0.0,0.0,71,0.00,,,0.00,Wunderground v.1.13,2013-01-02 00:10:00,
2013-01-01 19:20:00,69.6,60.2,30.06,South,179,0.0,0.0,72,0.00,,,0.00,Wunderground v.1.13,2013-01-02 00:20:00,
2013-01-01 19:30:00,69.1,60.1,30.05,South,179,0.0,0.0,73,0.00,,,0.00,Wunderground v.1.13,2013-01-02 00:30:00,
2013-01-01 19:40:00,68.8,60.2,30.05,South,179,0.0,0.0,74,0.00,,,0.00,Wunderground v.1.13,2013-01-02 00:40:00,
2013-01-01 19:50:00,68.4,59.8,30.05,South,179,0.0,0.0,74,0.00,,,0.00,Wunderground v.1.13,2013-01-02 00:50:00,
2013-01-01 20:00:00,67.9,60.1,30.05,South,179,0.0,0.0,76,0.00,,,0.00,Wunderground v.1.13,2013-01-02 01:00:00,
2013-01-01 20:10:00,67.4,59.6,30.05,South,179,0.0,0.0,76,0.00,,,0.00,Wunderground v.1.13,2013-01-02 01:10:00,
2013-01-01 20:20:00,67.4,59.9,30.05,South,172,0.0,0.0,77,0.00,,,0.00,Wunderground v.1.13,2013-01-02 01:20:00,
2013-01-01 20:30:00,67.4,59.9,30.05,SSE,167,0.0,0.0,77,0.00,,,0.00,Wunderground v.1.13,2013-01-02 01:30:00,
2013-01-01 20:40:00,67.6,60.1,30.05,SSE,167,0.0,0.0,77,0.00,,,0.00,Wunderground v.1.13,2013-01-02 01:40:00,
2013-01-01 20:50:00,67.6,60.1,30.05,SSE,167,0.0,0.0,77,0.00,,,0.00,Wunderground v.1.13,2013-01-02 01:50:00,
2013-01-01 21:00:00,67.4,59.9,30.05,SSE,167,0.0,0.0,77,0.00,,,0.00,Wunderground v.1.13,2013-01-02 02:00:00,
2013-01-01 21:10:00,67.3,60.2,30.05,SSE,167,0.0,0.0,78,0.00,,,0.00,Wunderground v.1.13,2013-01-02 02:10:00,
2013-01-01 21:20:00,67.1,60.0,30.05,SSE,167,0.0,0.0,78,0.00,,,0.00,Wunderground v.1.13,2013-01-02 02:20:00,
2013-01-01 21:30:00,67.1,60.0,30.05,SSE,167,0.0,0.0,78,0.00,,,0.00,Wunderground v.1.13,2013-01-02 02:30:00,
2013-01-01 21:40:00,66.8,60.1,30.05,SSE,167,0.0,0.0,79,0.00,,,0.00,Wunderground v.1.13,2013-01-02 02:40:00,
2013-01-01 21:50:00,66.6,59.9,30.05,SSE,167,0.0,0.0,79,0.00,,,0.00,Wunderground v.1.13,2013-01-02 02:50:00,
2013-01-01 22:00:00,66.3,59.9,30.05,SSE,167,0.0,0.0,80,0.00,,,0.00,Wunderground v.1.13,2013-01-02 03:00:00,
2013-01-01 22:10:00,66.0,59.7,30.05,SSE,167,0.0,0.0,80,0.00,,,0.00,Wunderground v.1.13,2013-01-02 03:10:00,
2013-01-01 22:20:00,65.8,59.5,30.05,SSE,167,0.0,0.0,80,0.00,,,0.00,Wunderground v.1.13,2013-01-02 03:20:00,
2013-01-01 22:30:00,65.2,59.9,30.05,SSE,167,0.0,0.0,83,0.00,,,0.00,Wunderground v.1.13,2013-01-02 03:30:00,
2013-01-01 22:40:00,64.8,59.5,30.05,SSE,167,0.0,0.0,83,0.00,,,0.00,Wunderground v.1.13,2013-01-02 03:40:00,
2013-01-01 22:50:00,64.8,59.9,30.05,SSE,167,0.0,0.0,84,0.00,,,0.00,Wunderground v.1.13,2013-01-02 03:50:00,
2013-01-01 23:00:00,64.7,59.8,30.04,SSE,167,0.0,0.0,84,0.00,,,0.00,Wunderground v.1.13,2013-01-02 04:00:00,
2013-01-01 23:10:00,64.3,59.7,30.04,SSE,167,0.0,0.0,85,0.00,,,0.00,Wunderground v.1.13,2013-01-02 04:10:00,
2013-01-01 23:20:00,64.2,59.6,30.04,SSE,167,0.0,0.0,85,0.00,,,0.00,Wunderground v.1.13,2013-01-02 04:20:00,
2013-01-01 23:30:00,64.0,59.7,30.04,SSE,167,0.0,0.0,86,0.00,,,0.00,Wunderground v.1.13,2013-01-02 04:30:00,
2013-01-01 23:40:00,63.9,59.6,30.04,SSE,167,0.0,0.0,86,0.00,,,0.00,Wunderground v.1.13,2013-01-02 04:40:00,
2013-01-01 23:50:00,63.4,59.8,30.03,SSE,167,0.0,0.0,88,0.00,,,0.00,Wunderground v.1.13,2013-01-02 04:50:00,